Terug naar catalogus

USA 361

ActiefMilitairVLEO
NORAD 59821·PAYLOAD·🇺🇸 United States

Gelanceerd May 22, 2024 vanaf Vandenberg Space Force Base

Loading…

Volgende Passages (komende 24 uur)

TLE

VerouderdSource: Mike McCants

Epoch: Aug 20, 2026, 21:29 UTC

1 59821U 24096H   26232.89519968 0.00000000  00000-0  00000-0 0    09
2 59821  70.0260 149.6721 0004000 149.4972 210.5027 14.96713003    03

Volg USA 361 in realtime met AllMySat

Download on the App Store